User: anonymous   Login
Location: Cutler
(25.6150°N, 80.3110°W)
Time: 22:40:36
(UTC-05:00)
Language:

Tiangong 2 - Orbit

View from above orbital plane
View from above orbital plane
View from above satellite
View from above satellite

Ground track
Ground track

The orbit data is extracted from the following two-line orbital elements,

1 41765U 16057A   17325.76008102  .00005068  00000-0  66595-4 0  9998
2 41765  42.7824 138.5746 0004143 265.3759 293.6567 15.59565334 67574
Epoch (UTC): 21 November 2017 18:14:31
Eccentricity: 0.0004143
inclination: 42.7824°
perigee height: 386 km
apogee height: 392 km
right ascension of ascending node: 138.5746°
argument of perigee: 265.3759°
revolutions per day: 15.59565334
mean anomaly at epoch: 293.6567°
orbit number at epoch: 6757

The dashed part of the orbit path shows where the satellite is in the earth's shadow,  

DLR